Wind_Speed
4 4 4 3 2 4 2 3 3 4 5 4 11 3 6 4 1 2 7 13 18 21 20 17 13 13 13 13 11 11 11 12 14 15 15 15 14 12 13 14 15 15 14 12 12 12 13 13 14
4 3 3 2 3 3 2 1 4 4 6 13 11 10 5 3 4 7 11 16 20 21 19 18 16 14 15 16 13 12 10 11 13 14 15 13 16 12 11 12 12 13 13 12 11 12 11 13 14
1 3 2 1 2 3 4 3 3 5 10 3 5 7 3 2 2 14 17 21 20 20 18 16 16 15 15 14 14 13 11 11 11 13 13 12 12 13 11 10 10 10 12 13 12 11 11 12 12
1 1 2 2 2 1 7 7 8 16 4 8 10 9 4 7 5 10 23 19 19 18 19 17 15 15 16 14 13 12 12 12 11 11 12 12 10 12 10 10 9 9 9 12 12 11 9 9 13
3 2 2 0 2 2 5 10 10 11 5 5 2 4 4 3 14 21 18 19 19 19 18 16 15 15 15 15 14 12 11 12 11 10 11 11 10 10 9 7 8 8 7 9 11 10 9 9 10
3 1 2 2 3 4 6 10 13 6 5 6 6 7 3 15 19 15 18 23 18 20 18 17 15 15 15 14 13 12 10 11 10 9 10 9 8 7 7 7 6 7 7 6 7 8 8 9 8
1 2 1 4 3 5 6 10 8 9 6 3 11 5 3 7 19 14 18 23 19 18 18 16 15 14 13 13 13 11 10 10 8 8 9 10 8 7 6 7 6 5 5 6 6 7 7 8 8
2 2 4 4 1 2 10 6 9 5 4 9 9 6 7 11 14 15 21 19 18 17 17 17 16 15 14 12 12 11 10 9 8 7 7 8 9 9 8 6 6 5 5 4 4 5 6 6 7
2 3 3 5 2 3 11 6 3 6 11 1 4 5 17 22 18 18 20 17 16 14 16 16 16 15 14 13 12 10 9 8 7 6 7 7 5 9 8 7 7 7 5 4 3 5 5 6 7
2 4 8 12 10 5 8 7 8 5 6 4 8 16 24 22 20 18 17 16 16 14 15 16 15 15 15 14 12 12 10 9 7 5 7 5 9 8 9 4 9 8 5 6 7 5 5 5 7
2 3 9 8 11 2 8 9 4 9 3 5 18 19 15 16 16 13 16 19 18 16 14 15 14 14 13 13 12 12 10 8 7 8 9 10 12 5 5 13 5 11 10 10 10 7 6 6 6
1 1 4 11 17 2 5 5 5 2 1 11 15 17 11 8 9 9 14 17 16 15 18 15 14 12 10 11 11 10 9 9 10 10 11 14 14 13 10 9 14 10 9 13 14 9 8 8 7
6 7 4 10 13 11 12 8 5 8 12 13 14 11 9 11 11 15 17 15 10 15 17 19 17 14 11 13 15 11 12 14 15 13 14 16 13 11 9 9 7 9 10 13 15 11 12 11 8
5 6 8 10 11 7 8 4 4 5 12 12 12 6 7 9 15 13 13 23 22 17 20 18 18 16 14 14 15 12 8 6 9 15 14 13 12 10 7 5 7 8 10 12 15 14 12 13 10
6 10 9 7 5 3 5 5 4 10 11 12 9 8 9 8 10 17 20 20 24 20 21 21 21 18 14 10 10 10 8 6 6 7 10 6 6 5 5 5 7 9 9 10 12 13 14 14 11
4 1 3 3 5 4 5 1 6 10 11 11 9 8 8 8 15 18 18 22 20 20 23 22 22 21 17 16 14 13 10 6 6 9 7 4 4 3 4 3 5 9 9 12 11 12 15 14 13
4 2 2 3 2 1 4 3 10 11 9 10 9 8 9 8 12 22 23 24 22 24 24 23 25 25 21 17 15 11 12 9 7 6 6 5 4 1 2 1 4 9 12 13 14 14 15 15 15
2 2 2 1 2 1 2 5 13 14 11 11 9 10 10 10 15 22 27 25 22 24 27 26 27 27 22 18 14 10 12 11 10 9 9 8 6 3 4 3 4 8 14 16 16 15 15 14 13
9 9 5 2 1 2 2 4 17 15 12 9 8 9 11 13 23 21 25 24 20 22 26 28 28 28 22 20 16 12 13 13 13 13 10 9 6 6 4 6 7 8 15 18 16 16 15 14 10
7 4 3 4 2 4 1 9 15 16 18 15 12 10 12 13 12 14 22 25 26 26 28 31 30 29 26 22 18 15 14 12 13 14 12 10 7 8 6 9 8 7 13 16 15 14 13 12 11
5 6 3 0 4 5 5 4 6 14 13 10 10 10 11 13 14 8 15 23 27 32 33 34 31 30 27 25 21 17 13 11 9 8 13 11 10 9 7 9 10 9 13 18 17 16 14 12 10
5 16 9 4 2 3 2 4 6 8 16 17 16 14 15 14 14 9 14 17 25 28 32 35 31 31 28 27 24 21 18 15 14 10 11 10 10 11 9 10 10 11 11 16 16 16 17 13 9
7 11 12 4 2 2 5 1 5 4 9 13 19 19 19 20 15 11 19 27 33 28 32 36 31 31 28 26 25 25 20 16 11 12 14 15 15 13 11 13 13 13 13 14 16 17 16 15 11
13 11 8 6 5 4 4 2 5 4 8 3 8 17 18 18 14 11 18 25 22 25 27 30 31 34 30 27 27 26 23 19 17 14 12 12 13 16 14 14 15 14 15 16 16 17 17 17 15
8 7 3 2 2 5 5 2 8 6 6 8 14 18 16 10 10 8 9 13 16 22 27 34 33 34 32 32 30 29 27 22 19 18 17 14 12 14 16 16 18 17 17 16 16 16 17 15 16
7 6 4 4 4 4 5 5 5 5 9 15 14 15 12 10 12 11 9 12 17 18 25 32 34 36 35 35 34 30 28 24 22 19 18 17 16 15 14 17 19 19 16 16 16 16 18 17 17
6 5 1 6 0 1 3 6 8 3 6 6 4 7 9 8 8 16 16 16 10 11 26 33 35 36 35 35 34 33 30 28 26 23 20 19 18 18 17 16 18 19 16 16 16 19 20 18 18
6 7 1 3 2 4 4 5 6 4 5 4 5 6 3 4 5 4 10 8 1 8 18 32 35 37 38 35 34 33 33 31 28 25 25 22 20 20 20 18 17 18 19 19 17 21 21 20 20
2 3 5 5 3 5 2 6 7 8 6 7 6 5 7 6 5 2 6 8 6 14 10 27 29 33 33 33 34 34 33 30 27 28 26 26 24 20 20 21 20 21 19 15 18 19 19 19 19
4 8 6 5 5 3 1 6 1 5 4 6 6 6 6 6 5 5 6 4 8 10 11 21 28 29 34 34 32 36 34 31 29 27 27 24 24 21 21 23 24 21 10 10 10 13 15 16 18
Wind_Direction
207 239 275 274 29 74 9 327 91 94 122 167 161 159 126 36 86 173 143 152 155 160 159 160 150 136 125 113 116 110 112 112 110 109 108 105 106 108 113 114 115 120 111 113 112 110 112 113 117
217 264 261 309 72 71 315 299 142 173 130 106 98 110 55 81 77 116 125 157 155 157 160 157 153 140 130 126 121 119 116 114 112 110 109 110 110 108 109 110 117 120 117 111 108 109 113 118 121
244 273 288 100 101 152 158 215 151 73 137 111 106 53 73 111 84 145 147 151 153 158 159 155 150 141 131 130 125 121 112 111 114 120 116 116 122 121 121 117 118 115 118 116 114 114 116 122 128
98 286 313 72 164 124 159 167 148 137 105 67 107 78 53 115 141 146 150 153 158 157 156 153 149 146 138 138 131 124 116 121 125 127 120 119 122 121 125 126 130 127 124 120 115 111 118 130 130
21 78 342 334 230 77 127 141 149 139 94 76 64 100 94 41 130 144 162 163 159 159 159 157 155 151 151 145 137 131 129 126 129 124 126 127 126 122 123 126 125 133 127 126 122 118 122 129 133
3 93 38 29 63 77 123 145 154 105 106 128 94 111 114 139 134 144 163 170 165 163 162 164 160 158 158 149 143 141 147 130 132 138 130 127 127 130 129 132 134 132 135 133 125 128 136 144 147
172 54 346 318 24 104 140 149 146 130 125 107 134 91 126 162 145 152 159 167 169 168 166 168 165 165 165 160 157 153 164 144 153 149 147 146 144 140 133 140 141 155 150 140 132 120 130 154 161
122 102 21 345 321 47 141 124 122 104 77 114 147 163 173 171 143 145 154 167 168 171 172 173 171 174 172 174 175 173 178 168 170 162 162 157 162 165 163 164 162 168 171 164 162 133 123 143 170
319 51 21 7 308 69 121 121 49 93 135 24 181 129 141 148 144 147 154 154 162 171 176 177 178 182 180 187 191 195 197 191 189 188 188 181 188 190 190 190 190 189 187 168 191 185 148 144 171
78 58 0 313 9 180 151 126 132 112 128 59 92 109 134 148 147 143 152 158 166 177 182 179 182 188 194 199 205 211 208 210 213 207 220 231 226 248 215 210 208 198 189 193 202 197 186 168 178
73 76 350 321 321 233 146 113 89 122 211 193 155 142 144 141 152 158 161 170 177 179 185 185 184 193 205 212 220 224 222 223 222 227 239 245 235 257 243 225 203 215 219 215 219 214 205 190 193
338 79 86 323 318 250 112 90 90 17 62 119 141 138 139 144 155 161 162 170 191 198 200 192 193 196 208 225 234 240 244 247 235 243 255 258 252 264 261 256 231 229 233 221 226 237 226 215 218
19 10 33 333 14 48 88 87 89 96 104 111 123 141 161 163 172 181 167 177 189 192 202 210 204 206 218 235 240 250 263 267 259 250 261 257 255 264 291 278 234 233 241 225 222 239 232 227 243
10 7 340 350 324 1 94 103 81 123 122 122 143 176 185 175 188 199 200 161 200 207 207 208 213 219 226 246 239 247 253 245 248 246 253 246 243 267 307 280 227 229 235 223 221 234 237 225 241
111 352 352 325 9 93 6 20 89 147 142 143 168 197 204 212 204 214 209 213 206 210 205 220 215 214 218 215 195 194 209 207 229 237 237 229 256 271 297 271 232 227 217 204 209 222 215 218 232
49 286 334 58 358 47 68 111 156 168 156 168 183 206 207 229 220 226 227 218 216 222 215 212 209 210 211 212 205 212 218 227 239 250 255 254 263 274 294 266 232 221 211 198 191 194 196 209 226
170 251 206 328 74 98 79 121 190 182 185 185 188 203 211 231 236 234 229 231 230 228 217 210 211 216 220 226 222 220 218 235 249 238 269 229 200 5 242 210 217 209 201 200 196 196 201 209 228
179 104 262 253 251 65 57 206 181 193 196 198 200 197 208 223 233 232 230 240 243 220 216 220 215 218 224 223 214 211 226 243 255 261 267 229 208 217 197 218 201 196 192 191 195 200 204 218 225
114 132 208 231 14 242 145 213 184 196 205 207 218 203 211 218 230 226 235 238 231 217 218 217 213 215 217 215 218 226 236 245 253 253 253 248 219 215 234 215 202 200 195 191 195 202 205 214 229
133 157 243 164 202 160 167 184 184 190 209 205 202 223 219 234 241 224 224 212 212 214 214 210 216 215 215 215 217 227 241 256 266 260 245 237 221 206 240 223 213 196 196 193 195 200 210 216 215
205 209 177 67 101 64 40 293 211 208 219 215 216 218 237 224 236 214 213 214 211 208 212 209 213 215 218 220 224 235 245 249 259 240 228 229 233 212 225 222 222 210 201 198 197 204 207 209 210
218 217 171 115 43 184 176 248 219 196 211 217 218 210 237 240 236 227 211 199 214 214 211 211 212 216 223 218 224 230 237 245 246 258 243 234 215 203 206 217 221 216 207 206 202 210 218 229 222
247 176 155 95 335 357 342 107 263 154 218 218 212 208 215 234 231 219 197 206 217 209 209 209 214 215 214 214 222 224 234 247 257 249 250 240 219 214 217 219 222 217 216 210 211 213 219 234 234
112 90 51 46 39 329 251 196 290 191 223 224 211 210 208 214 215 222 203 206 205 203 201 209 215 217 216 220 223 229 234 244 248 244 240 236 236 228 226 222 227 227 225 224 223 227 222 228 237
77 79 81 335 187 233 212 82 242 257 236 218 208 206 201 188 179 183 191 194 199 195 198 207 214 222 222 226 233 231 234 239 244 251 248 243 252 230 226 224 227 228 232 239 237 236 241 242 247
185 162 165 203 194 249 207 235 245 238 292 246 216 178 165 167 169 168 148 169 206 203 205 209 213 222 226 227 231 236 238 240 244 248 249 251 259 248 249 242 238 236 238 239 243 250 254 257 260
191 206 159 108 119 311 267 290 295 298 346 355 131 142 157 137 170 165 152 149 162 221 223 217 218 223 225 228 233 239 242 240 240 246 246 249 255 255 261 256 241 237 237 235 240 246 254 255 255
172 160 136 11 123 294 285 292 238 265 271 280 196 174 150 118 140 192 147 150 38 326 247 222 221 225 226 228 234 239 243 245 246 251 251 250 253 256 259 254 251 248 246 242 247 248 250 256 258
87 282 48 111 133 177 223 260 216 210 209 230 217 180 157 209 196 146 74 65 22 307 273 222 220 227 230 232 236 240 244 247 247 250 255 254 256 259 254 256 259 253 258 257 264 268 264 265 270
196 188 149 127 237 246 173 277 290 162 211 233 234 163 172 192 238 70 68 22 321 307 258 229 223 227 235 239 240 244 247 248 249 250 254 258 254 256 260 263 259 260 278 289 294 289 283 272 277
Height
784 784 784 784 800 799 809 798 783 791 793 783 785 791 803 806 811 825 807 811 812 815 816 818 820 821 821 822 824 826 826 825 825 826 827 828 829 830 831 832 832 832 833 834 836 837 837 837 838
784 785 785 785 808 818 813 788 794 785 781 783 789 797 804 814 804 809 811 813 814 816 817 819 820 821 822 823 825 826 826 826 827 827 828 829 828 831 833 834 835 835 835 836 837 839 839 839 840
784 784 787 795 799 811 812 787 786 783 782 783 794 797 805 813 809 808 809 813 816 817 819 821 822 823 823 824 826 826 828 828 829 829 830 830 830 830 832 834 836 837 837 838 838 840 841 841 842
783 784 785 801 800 785 787 781 778 782 783 785 792 809 807 808 808 808 811 814 817 819 820 822 824 824 824 826 827 828 829 829 830 831 831 832 832 831 832 834 836 837 838 839 840 841 842 843 844
783 787 800 792 788 778 774 774 777 784 786 790 792 812 813 810 810 811 813 815 817 820 822 824 825 825 825 825 827 829 830 829 831 833 832 833 833 833 833 835 836 837 840 839 840 842 843 844 846
791 793 803 803 790 779 776 774 777 784 790 796 802 808 814 811 811 812 813 816 819 820 823 824 825 825 826 826 828 829 830 831 833 833 833 834 835 835 835 835 837 838 839 840 841 842 843 844 846
791 799 807 801 793 788 779 772 783 787 792 799 797 815 815 813 814 814 815 817 820 822 823 824 826 826 828 828 829 828 830 831 832 834 834 834 835 835 836 837 838 839 840 841 841 843 843 844 846
789 795 799 790 798 793 774 774 779 785 795 792 795 813 818 811 814 815 817 819 821 822 824 825 826 827 828 829 829 829 830 831 832 834 835 835 835 835 836 837 839 840 841 842 842 843 844 845 846
784 804 811 798 793 787 773 781 780 782 792 794 794 799 804 809 813 815 818 821 822 824 825 826 826 828 829 828 829 829 830 832 834 835 836 836 835 835 835 837 838 840 842 843 844 844 845 845 846
793 811 799 784 780 780 776 777 782 792 797 803 801 802 807 810 813 815 817 820 822 824 826 827 827 828 828 828 829 829 831 833 833 835 836 835 836 835 835 837 838 839 841 843 844 845 845 846 846
793 804 792 783 777 772 778 780 780 794 802 799 801 802 808 811 814 816 819 819 822 824 827 827 828 828 828 828 830 830 832 834 835 834 835 835 834 835 834 835 836 838 839 840 842 843 845 846 847
797 788 791 785 773 773 780 777 791 791 795 791 799 804 809 814 815 818 819 820 821 825 827 828 828 827 828 829 830 832 833 834 834 833 833 832 832 833 833 833 834 836 837 838 840 842 844 845 847
795 792 787 785 776 778 776 786 792 800 796 799 804 809 810 813 816 817 819 822 821 825 827 828 827 826 827 829 830 831 831 831 832 831 831 831 830 830 830 830 831 833 834 836 838 841 843 845 847
794 793 791 786 787 785 792 795 794 804 799 804 807 810 812 815 815 818 820 821 818 822 826 826 826 826 827 827 828 829 829 830 830 830 830 830 829 829 828 828 829 830 831 833 836 839 841 844 846
795 802 795 794 793 795 792 805 809 802 802 807 811 813 814 817 818 817 819 819 822 823 825 825 826 826 827 827 827 828 829 829 829 828 828 827 827 827 827 827 827 828 829 830 833 836 838 842 845
807 812 825 802 796 795 799 824 810 806 806 811 812 813 815 816 817 818 818 819 821 822 822 824 826 826 826 826 827 828 828 828 828 827 826 825 826 826 826 825 825 827 828 829 831 834 836 840 843
816 828 823 810 796 797 804 821 809 805 809 811 812 813 814 815 815 815 816 817 817 818 820 820 823 825 825 826 827 827 827 827 828 828 827 825 825 825 826 824 824 825 827 829 831 833 836 838 841
820 821 812 815 802 797 808 812 808 805 807 808 809 810 811 810 807 808 811 813 814 815 817 818 820 823 825 825 825 825 825 826 827 827 826 827 826 826 825 824 824 823 825 827 830 832 834 837 838
800 807 809 801 798 802 808 807 806 804 806 806 807 807 806 805 799 805 806 807 810 811 813 815 818 820 823 823 822 823 824 824 824 824 825 825 826 826 825 825 824 825 825 826 829 832 834 837 838
797 804 797 799 796 800 803 808 800 798 798 796 801 803 800 799 799 800 801 803 805 807 810 813 816 819 820 821 820 822 823 823 822 821 823 824 826 826 826 825 825 825 825 827 830 832 834 835 837
803 801 800 799 797 802 812 819 810 796 794 794 793 794 794 794 794 796 798 798 799 802 805 809 812 815 818 820 820 821 822 821 821 820 820 822 824 826 825 825 825 825 825 826 827 830 833 833 835
815 782 788 801 816 829 813 840 812 802 797 793 790 791 790 790 788 790 793 796 795 797 801 805 808 812 814 817 819 819 820 819 820 820 820 820 822 823 824 825 825 825 824 826 826 829 831 833 833
790 775 791 808 825 823 819 831 809 799 802 790 783 782 784 782 784 786 788 789 790 794 798 802 806 809 811 813 815 817 818 817 818 818 818 819 820 821 822 822 823 824 824 823 824 826 829 831 831
773 792 809 823 843 855 831 832 814 806 789 781 777 772 772 775 778 781 783 784 788 793 798 803 805 806 809 810 812 814 816 817 817 817 817 818 819 819 820 821 823 823 823 823 823 824 825 825 826
787 812 856 862 865 850 829 832 810 779 770 769 767 763 763 767 773 777 780 783 787 791 796 798 801 803 806 808 809 810 811 814 815 815 815 816 816 817 818 819 820 821 822 822 823 824 825 824 824
799 807 830 828 851 836 820 822 793 768 760 752 750 754 758 763 766 771 775 780 785 790 793 796 797 799 803 805 806 808 810 810 811 813 814 814 814 815 817 817 818 819 820 822 823 823 824 824 824
794 805 796 828 837 837 825 805 777 761 762 760 759 759 760 764 765 764 769 776 781 786 789 791 794 797 799 800 802 804 805 807 808 810 811 811 812 814 814 815 816 817 818 819 820 820 820 820 820
773 782 811 820 833 835 830 823 812 773 768 768 766 767 768 765 767 766 767 772 777 780 782 784 787 789 793 797 798 800 801 803 806 808 808 809 810 811 812 813 814 815 815 815 816 815 816 817 817
788 797 803 810 821 836 839 825 777 768 764 766 764 764 768 767 763 766 767 770 773 778 778 778 781 784 788 792 794 796 798 800 803 804 804 805 807 808 809 810 809 810 812 815 816 817 817 817 816
772 775 789 818 820 823 820 810 753 760 759 760 758 763 766 764 766 771 773 774 777 775 774 775 777 779 781 787 792 792 794 797 798 800 801 803 803 804 805 804 805 809 814 815 815 814 813 811 812